Flag for Canada Weather past 2 weeks in Gander, Newfoundland and Labrador, Canada

34 °F

Mostly cloudy.

Feels Like: 23 °F
Forecast: 36 / 45 °F
Wind: 18 mph from Southwest

Location: Gander Int. Airport

Current Time: Nov 26, 2015 at 9:38:56 PM

Latest Report: Nov 26, 2015 at 8:30 PM

Visibility: 20 mi

Pressure: 30.67 "Hg

Humidity: 70%

Dew point: 25 °F

Location of GanderLocation

Historic Weather in Gander — Graph


Gander temperature yesterday

Maximum temperature yesterday: 32 °F (at 12:30 AM)
Minimum temperature yesterday: 25 °F (at 8:30 PM)
Average temperature yesterday: 29 °F

Past Weeks' High & Low Weather Summary

High54 °F (Nov 23, 1:30 PM)100% (Nov 13, 11:30 PM)30.93 "Hg (Nov 13, 11:30 PM)
Low21 °F (Nov 11, 7:30 PM)56% (Nov 12, 1:30 PM)29.39 "Hg (Nov 15, 5:15 AM)
Average33 °F88%30.12 "Hg
* Reported Nov 11 7:30 PM — Nov 26 7:30 PM, Gander, Weather by CustomWeather, © 2015

Note: Actual official high and low records may vary slightly from our data, if they occured in-between our weather recording intervals... More about our weather records


Gander weather history for previous 24 hours

Time TempWeatherWind HumidityBarometerVisibility
7:30 PM
Thu, Nov 26
32 °FMostly cloudy.20 mph75%30.69 "Hg20 mi
6:30 PM32 °FMostly cloudy.21 mph75%30.71 "Hg20 mi
5:30 PM32 °FPassing clouds.22 mph75%30.74 "Hg20 mi
4:30 PM32 °FPassing clouds.16 mph69%30.76 "Hg20 mi
3:30 PM34 °FPassing clouds.18 mph65%30.78 "Hg20 mi
2:30 PM34 °FScattered clouds.18 mph65%30.80 "Hg20 mi
1:30 PM32 °FScattered clouds.17 mph64%30.84 "Hg20 mi
12:30 PM32 °FScattered clouds.17 mph64%30.88 "Hg20 mi
11:30 AM28 °FScattered clouds.17 mph74%30.91 "Hg20 mi
10:30 AM27 °FScattered clouds.12 mph74%30.93 "Hg20 mi
9:30 AM25 °FPassing clouds.15 mph74%30.92 "Hg20 mi
8:30 AM23 °FPassing clouds.13 mph80%30.92 "Hg20 mi
7:30 AM23 °FSunny.13 mph80%30.90 "Hg20 mi
6:30 AM23 °FPassing clouds.14 mph74%30.89 "Hg15 mi
5:30 AM21 °FPassing clouds.12 mph80%30.87 "Hg15 mi
4:30 AM21 °FPassing clouds.7 mph80%30.84 "Hg15 mi
3:30 AM23 °FPassing clouds.13 mph80%30.82 "Hg15 mi
2:30 AM23 °FPassing clouds.13 mph80%30.80 "Hg15 mi
1:30 AM23 °FPassing clouds.12 mph86%30.77 "Hg15 mi
12:30 AM25 °FPassing clouds.10 mph80%30.74 "Hg15 mi
11:30 PM
Wed, Nov 25
25 °FPassing clouds.9 mph86%30.72 "Hg15 mi
10:30 PM25 °FSnow flurries. Partly cloudy.7 mph93%30.69 "Hg15 mi
9:30 PM25 °FSnow flurries. Overcast.7 mph93%30.67 "Hg3 mi
Weather by CustomWeather, © 2015

See weather overviewHow to use our weather pages